Location: Tamazert
(32.6352°N, 5.2072°W)
Time: 04:42:17
(UTC+00:00)

Vanguard 2 Rocket - Pass Details

Date: 09 October 2022
Orbit: 555 x 3321 km, 32.9° (Epoch: 05 December)

Event Time Altitude Azimuth Distance (km) Brightness Sun altitude
Rises 00:16:20 0° 274° (W) 6,784 11.4 -63.5°
Enters shadow 00:20:30 - 275° (W) 5,676 10.9 -63.4°
Reaches altitude 10° 00:21:25 10° 275° (W) 5,426 - -63.4°
Maximum altitude 00:36:16 89° 188° (S) 1,739 - -62.8°
Drops below altitude 10° 00:44:18 10° 99° (E) 3,111 - -62.3°
Sets 00:46:27 0° 99° (E) 3,821 - -62.1°
